Valentine, NE

1:10 PM CDT on July 27, 2016 (GMT -0500)
Miller Field

Weather History for KVTN - July, 2013

Change the Weather History Date:

Thursday, July 25, 2013

  Actual Average Record
Temperature  
Mean Temperature 71 °F 75 °F  
Max Temperature 83 °F 89 °F 111 °F (2003)
Min Temperature 59 °F 61 °F 40 °F (1911)
Degree Days  
Heating Degree Days 0 0  
Month to date heating degree days 0 2  
Since 1 June heating degree days 54 63  
Since 1 July heating degree days 0 2  
Cooling Degree Days 6 11  
Month to date cooling degree days 269 241  
Year to date cooling degree days 454 412  
Since 1 June cooling degree days 415 378  
Growing Degree Days 20 (Base 50)    
Moisture  
Dew Point 59 °F    
Average Humidity 68    
Maximum Humidity 93    
Minimum Humidity 42    
Precipitation  
Precipitation T in 0.10 in 3.17 in (1984)
Month to date precipitation 1.59 2.63  
Year to date precipitation 13.44 13.35  
Snow  
Snow 0.00 in 0.00 in 0.00 in ()
Month to date snowfall 0.0 0.0  
Since 1 June snowfall 0.0 0.0  
Since 1 July snowfall 0.0 0.0  
Snow Depth 0.00 in    
Sea Level Pressure  
Sea Level Pressure 30.01 in    
Wind  
Wind Speed 6 mph (North)    
Max Wind Speed 18 mph    
Max Gust Speed 23 mph    
Visibility 10 miles    
Events      
T = Trace of Precipitation, MM = Missing Value Source: NWS Daily Summary

Daily Weather History Graph

Daily Weather History Graph

Search for Another Location

Airport or City:

Trip Planner

Search our weather history database for the weather conditions in past years. The results will help you decide how hot, cold, wet, or windy it might be!

Date:

Astronomy

Jul. 25, 2013 Rise Set
Actual Time 6:26 AM CDT 9:10 PM CDT
Civil Twilight 5:53 AM CDT 9:43 PM CDT
Nautical Twilight 5:12 AM CDT 10:24 PM CDT
Astronomical Twilight 4:24 AM CDT 11:11 PM CDT
Moon 10:44 PM CDT (7/25) 10:04 AM CDT (7/25)
Length of Visible Light 15h 49m
Length of Day
14h 43m
Waning Gibbous, 88% of the Moon is Illuminated
Jul 25
Waning Gibbous
Jul 29
Last Quarter
Aug 6
New
Aug 14
First Quarter
Aug 20
Full

Hourly Weather History & Observations

Time (CDT) Temp. Heat Index Dew Point Humidity Pressure Visibility Wind Dir Wind Speed Gust Speed Precip Events Conditions
12:52 AM 68.0 °F - 63.0 °F 84% 30.01 in 10.0 mi East 4.6 mph - N/A   Clear
1:52 AM 66.9 °F - 63.0 °F 87% 29.99 in 10.0 mi NE 3.5 mph - N/A   Clear
2:52 AM 64.9 °F - 62.1 °F 90% 29.97 in 10.0 mi East 3.5 mph - N/A   Clear
3:52 AM 64.9 °F - 61.0 °F 87% 29.95 in 10.0 mi SSW 10.4 mph - N/A   Clear
4:52 AM 64.0 °F - 57.9 °F 80% 29.95 in 10.0 mi NW 3.5 mph - N/A   Clear
5:52 AM 64.0 °F - 57.0 °F 78% 29.96 in 10.0 mi Calm Calm - N/A   Clear
6:52 AM 60.1 °F - 57.9 °F 93% 29.97 in 10.0 mi West 4.6 mph - N/A   Clear
7:52 AM 64.9 °F - 59.0 °F 81% 30.02 in 10.0 mi NW 10.4 mph - N/A   Clear
8:52 AM 71.1 °F - 59.0 °F 66% 30.00 in 10.0 mi NW 6.9 mph - N/A   Clear
9:52 AM 73.0 °F - 60.1 °F 64% 30.02 in 10.0 mi NNW 16.1 mph 19.6 mph N/A   Clear
10:52 AM 75.0 °F - 61.0 °F 62% 30.02 in 10.0 mi NNW 3.5 mph - N/A   Mostly Cloudy
11:52 AM 71.1 °F - 62.1 °F 73% 30.02 in 10.0 mi NNW 10.4 mph - N/A   Mostly Cloudy
12:52 PM 71.1 °F - 62.1 °F 73% 30.03 in 10.0 mi NNW 8.1 mph - 0.00 in   Mostly Cloudy
1:52 PM 79.0 °F - 61.0 °F 54% 30.01 in 10.0 mi NNW 8.1 mph - N/A   Partly Cloudy
2:52 PM 81.0 °F 81.6 °F 60.1 °F 49% 30.02 in 10.0 mi NNW 10.4 mph 16.1 mph N/A   Partly Cloudy
3:52 PM 82.0 °F 81.7 °F 57.0 °F 42% 30.01 in 10.0 mi NNE 5.8 mph - N/A   Partly Cloudy
4:52 PM 80.1 °F 80.2 °F 55.9 °F 43% 30.02 in 10.0 mi NE 6.9 mph 17.3 mph N/A   Partly Cloudy
5:52 PM 82.0 °F 81.7 °F 57.0 °F 42% 30.01 in 10.0 mi NE 12.7 mph - N/A   Clear
6:52 PM 80.1 °F 80.2 °F 55.9 °F 43% 30.02 in 10.0 mi NNE 6.9 mph - N/A   Clear
7:52 PM 78.1 °F - 57.0 °F 48% 30.01 in 10.0 mi ESE 4.6 mph - N/A   Clear
8:52 PM 75.9 °F - 57.9 °F 54% 30.01 in 10.0 mi Calm Calm - N/A   Scattered Clouds
9:52 PM 72.0 °F - 57.9 °F 61% 30.02 in 10.0 mi Calm Calm - N/A   Clear
10:52 PM 69.1 °F - 57.9 °F 68% 30.06 in 10.0 mi Calm Calm - N/A   Clear
11:52 PM 68.0 °F - 57.9 °F 70% 30.09 in 10.0 mi NNE 4.6 mph - N/A   Clear